GW1238 Weather Reports


time (UTC)temp
C
wind
direction
speed
KPH
gust
KPH
rain 1hr
cm
rain 24hr
cm
rain mn
cm
humidity
%
barometer
mb
20260503200118 19 191 8.0 12.9 0.00 0.00 0.00 44 1021.7
20260503195615 19 191 11.3 12.9 0.00 0.00 0.00 48 1022.0
20260503195112 19 197 11.3 14.5 0.00 0.00 0.00 47 1022.0
20260503194609 19 185 11.3 17.7 0.00 0.00 0.00 45 1022.2
20260503194103 20 163 6.4 6.4 0.00 0.00 0.00 47 1022.2
20260503193600 19 183 4.8 6.4 0.00 0.00 0.00 43 1022.3
20260503193056 19 179 4.8 9.7 0.00 0.00 0.00 44 1022.5
20260503192552 19 160 6.4 11.3 0.00 0.00 0.00 47 1022.5
20260503192048 19 177 8.0 9.7 0.00 0.00 0.00 48 1022.6
20260503191545 18 166 3.2 9.7 0.00 0.00 0.00 50 1022.6
20260503191042 18 171 8.0 11.3 0.00 0.00 0.00 47 1022.7
20260503190539 18 163 3.2 6.4 0.00 0.00 0.00 52 1022.7
20260503190036 18 137 6.4 9.7 0.00 0.00 0.00 46 1023.0
20260503185533 18 171 6.4 6.4 0.00 0.00 0.00 49 1022.9
20260503185032 17 136 4.8 4.8 0.00 0.00 0.00 53 1023.2
20260503184528 17 164 4.8 6.4 0.00 0.00 0.00 51 1023.1
20260503184025 17 165 4.8 4.8 0.00 0.00 0.00 51 1023.1
20260503183522 17 162 3.2 4.8 0.00 0.00 0.00 52 1023.0
20260503183019 17 159 3.2 6.4 0.00 0.00 0.00 49 1023.3
20260503182518 17 159 3.2 4.8 0.00 0.00 0.00 50 1023.2
20260503182015 17 181 4.8 6.4 0.00 0.00 0.00 52 1023.6
20260503181512 17 189 4.8 4.8 0.00 0.00 0.00 54 1023.4
20260503181008 17 154 3.2 4.8 0.00 0.00 0.00 54 1023.5
20260503180506 16 167 3.2 4.8 0.00 0.00 0.00 58 1023.5
20260503180002 16 153 3.2 4.8 0.00 0.00 0.00 56 1023.5
20260503175500 16 128 1.6 4.8 0.00 0.00 0.00 56 1023.8
20260503174956 15 130 4.8 4.8 0.00 0.00 0.00 55 1023.8
20260503174454 15 97 3.2 4.8 0.00 0.00 0.00 55 1024.0
20260503173949 15 103 1.6 3.2 0.00 0.00 0.00 52 1024.0
20260503173445 16 154 3.2 4.8 0.00 0.00 0.00 53 1024.2
20260503172942 16 170 4.8 4.8 0.00 0.00 0.00 52 1024.2
20260503172440 16 128 0.0 1.6 0.00 0.00 0.00 53 1024.3
20260503171936 16 149 0.0 3.2 0.00 0.00 0.00 52 1024.5
20260503171433 16 181 4.8 4.8 0.00 0.00 0.00 52 1024.6
20260503170931 16 188 4.8 6.4 0.00 0.00 0.00 55 1024.6
20260503170426 15 199 4.8 6.4 0.00 0.00 0.00 54 1024.7
20260503150819 13 64 4.8 9.7 0.00 0.00 0.00 62 1025.7
20260503150315 12 101 4.8 9.7 0.00 0.00 0.00 61 1025.5
20260503140239 12 57 6.4 9.7 0.00 0.00 0.00 76 1025.3
20260503131209 11 72 3.2 3.2 0.00 0.00 0.00 75 1025.3
20260503130707 11 59 3.2 6.4 0.00 0.00 0.00 77 1025.1
20260503130204 11 50 4.8 6.4 0.00 0.00 0.00 75 1025.2
20260503120129 9 356 0.0 1.6 0.00 0.00 0.00 91 1024.9
20260503110556 6 302 1.6 3.2 0.00 0.00 0.00 95 1024.1
20260503090444 7 287 3.2 4.8 0.00 0.00 0.00 91 1023.1
20260503081410 8 171 0.0 0.0 0.00 0.00 0.00 91 1023.0
20260503080907 8 129 0.0 0.0 0.00 0.00 0.00 91 1022.9
20260503080404 8 90 0.0 0.0 0.00 0.00 0.00 91 1023.0
20260503072840 8 330 1.6 1.6 0.00 0.00 0.00 89 1022.5
20260503072337 8 342 1.6 1.6 0.00 0.00 0.00 89 1022.5
20260503071833 8 259 0.0 1.6 0.00 0.00 0.00 89 1022.2
20260503071331 8 284 1.6 3.2 0.00 0.00 0.00 89 1022.4
20260503070827 8 276 3.2 3.2 0.00 0.00 0.00 88 1022.4
20260503070325 8 301 3.2 3.2 0.00 0.00 0.00 88 1022.4
20260503060250 8 23 1.6 1.6 0.00 0.00 0.00 86 1022.1
20260503054737 9 291 1.6 3.2 0.00 0.00 0.00 86 1022.0
20260503054234 9 291 1.6 3.2 0.00 0.00 0.00 85 1022.1
20260503053732 9 332 0.0 1.6 0.00 0.00 0.00 84 1022.2
20260503053231 9 342 1.6 1.6 0.00 0.00 0.00 85 1022.2
20260503052726 9 295 3.2 6.4 0.00 0.00 0.00 84 1022.3
20260503052223 9 295 3.2 3.2 0.00 0.00 0.00 85 1022.1
20260503051718 9 297 3.2 3.2 0.00 0.00 0.00 85 1021.9
20260503051216 9 290 3.2 3.2 0.00 0.00 0.00 85 1022.2
20260503050712 9 292 3.2 4.8 0.00 0.00 0.00 84 1022.2
20260503050209 9 291 3.2 4.8 0.00 0.00 0.00 84 1022.0
20260503045707 9 295 3.2 4.8 0.00 0.00 0.00 83 1021.9
20260503045204 10 283 3.2 4.8 0.00 0.00 0.00 83 1022.0
20260503044700 9 285 3.2 4.8 0.00 0.00 0.00 84 1022.0
20260503044158 9 286 3.2 3.2 0.00 0.00 0.00 83 1021.9
20260503043654 9 303 3.2 3.2 0.00 0.00 0.00 82 1021.9
20260503043152 9 301 3.2 4.8 0.00 0.00 0.00 81 1021.7
20260503042647 10 289 3.2 4.8 0.00 0.00 0.00 81 1021.8
20260503042144 10 313 3.2 3.2 0.00 0.00 0.00 80 1021.8
20260503041640 10 300 3.2 3.2 0.00 0.00 0.00 79 1021.7
20260503041138 10 301 1.6 3.2 0.00 0.00 0.00 78 1021.6
20260503040635 11 305 1.6 3.2 0.00 0.00 0.00 77 1021.7
20260503040133 11 330 0.0 0.0 0.00 0.00 0.00 77 1021.7
20260503035629 11 256 1.6 1.6 0.00 0.00 0.00 76 1021.4
20260503035127 11 264 0.0 1.6 0.00 0.00 0.00 75 1021.6
20260503034624 11 286 0.0 1.6 0.00 0.00 0.00 74 1021.6
20260503034121 12 186 0.0 1.6 0.00 0.00 0.00 72 1021.5
20260503033618 12 60 0.0 1.6 0.00 0.00 0.00 71 1021.6
20260503033116 12 271 0.0 3.2 0.00 0.00 0.00 68 1021.3
20260503032614 12 93 0.0 0.0 0.00 0.00 0.00 69 1021.5
20260503032113 12 75 0.0 3.2 0.00 0.00 0.00 68 1021.3
20260503031610 12 126 0.0 1.6 0.00 0.00 0.00 68 1021.2
20260503031107 12 306 1.6 3.2 0.00 0.00 0.00 69 1021.5
20260503030603 12 307 1.6 3.2 0.00 0.00 0.00 69 1021.4
20260503030100 12 327 1.6 4.8 0.00 0.00 0.00 68 1021.3
20260503025556 12 292 1.6 3.2 0.00 0.00 0.00 68 1021.3
20260503025054 12 327 1.6 6.4 0.00 0.00 0.00 67 1021.3
20260503024550 12 315 1.6 4.8 0.00 0.00 0.00 66 1021.2
20260503024048 12 273 3.2 3.2 0.00 0.00 0.00 67 1021.3
20260503023544 13 305 3.2 4.8 0.00 0.00 0.00 67 1021.1
20260503023042 13 322 3.2 4.8 0.00 0.00 0.00 64 1021.0
20260503022538 13 286 3.2 4.8 0.00 0.00 0.00 62 1021.0
20260503022032 13 271 4.8 6.4 0.00 0.00 0.00 64 1021.0
20260503021530 13 310 3.2 6.4 0.00 0.00 0.00 62 1020.9
20260503021026 13 264 0.0 6.4 0.00 0.00 0.00 60 1020.9
20260503020524 13 8 3.2 4.8 0.00 0.00 0.00 58 1020.8
20260503020020 13 247 1.6 4.8 0.00 0.00 0.00 59 1020.8
20260503015517 13 305 3.2 11.3 0.00 0.00 0.00 61 1020.8
20260503015014 13 323 1.6 6.4 0.00 0.00 0.00 59 1020.4
20260503014510 13 325 1.6 3.2 0.00 0.00 0.00 58 1020.4
20260503014009 14 331 0.0 3.2 0.00 0.00 0.00 58 1020.2
20260503013505 14 17 3.2 4.8 0.00 0.00 0.00 56 1020.2
20260503013003 14 359 3.2 4.8 0.00 0.00 0.00 55 1020.2
20260503012500 15 342 3.2 6.4 0.00 0.00 0.00 56 1020.2
20260503011956 15 157 0.0 6.4 0.00 0.00 0.00 54 1020.1
20260503011453 15 114 0.0 9.7 0.00 0.00 0.00 54 1020.1
20260503010950 15 306 3.2 6.4 0.00 0.00 0.00 53 1020.1
20260503010447 15 324 3.2 4.8 0.00 0.00 0.00 52 1020.1
20260503005944 15 311 1.6 3.2 0.00 0.00 0.00 50 1020.1
20260503005441 15 2 3.2 4.8 0.00 0.00 0.00 50 1019.9
20260503004938 16 292 0.0 4.8 0.00 0.00 0.00 51 1019.8
20260503004435 16 217 1.6 1.6 0.00 0.00 0.00 49 1019.4
20260503003932 16 354 0.0 0.0 0.00 0.00 0.00 47 1019.4
20260503003429 16 324 0.0 1.6 0.00 0.00 0.00 47 1019.2
20260503002926 16 297 1.6 3.2 0.00 0.00 0.00 51 1019.1
20260503002423 16 316 1.6 3.2 0.00 0.00 0.00 48 1019.1
20260503001919 16 294 1.6 3.2 0.00 0.00 0.00 51 1019.0
20260503001416 16 336 3.2 4.8 0.00 0.00 0.00 47 1018.8
20260503000914 16 290 1.6 3.2 0.00 0.00 0.00 52 1018.9
20260503000411 16 291 1.6 4.8 0.00 0.00 0.00 48 1018.8
20260502235908 16 310 0.0 1.6 0.00 0.00 0.00 51 1018.5
20260502235405 16 311 0.0 3.2 0.00 0.00 0.00 53 1018.5
20260502234902 16 292 3.2 3.2 0.00 0.00 0.00 50 1018.4
20260502234358 16 320 3.2 4.8 0.00 0.00 0.00 43 1018.2
20260502233855 17 62 0.0 1.6 0.00 0.00 0.00 50 1018.1
20260502233351 17 279 3.2 3.2 0.00 0.00 0.00 45 1017.9
20260502232848 17 302 3.2 4.8 0.00 0.00 0.00 42 1018.1
20260502232345 17 301 1.6 3.2 0.00 0.00 0.00 44 1018.0
20260502231841 17 315 1.6 4.8 0.00 0.00 0.00 44 1018.0
20260502231339 17 306 1.6 3.2 0.00 0.00 0.00 43 1018.1
20260502230837 18 156 0.0 6.4 0.00 0.00 0.00 39 1018.1
20260502230335 18 286 3.2 6.4 0.00 0.00 0.00 38 1018.1
20260502225831 18 34 1.6 3.2 0.00 0.00 0.00 40 1018.1
20260502225328 18 273 6.4 9.7 0.00 0.00 0.00 40 1017.9
20260502224825 18 264 4.8 6.4 0.00 0.00 0.00 37 1018.1
20260502224321 18 274 6.4 6.4 0.00 0.00 0.00 39 1017.9
20260502223819 18 310 3.2 6.4 0.00 0.00 0.00 36 1018.0
20260502223317 18 278 6.4 9.7 0.00 0.00 0.00 36 1018.1
20260502222814 18 277 6.4 9.7 0.00 0.00 0.00 36 1018.0
20260502222311 18 355 3.2 12.9 0.00 0.00 0.00 36 1018.0
20260502221807 18 297 6.4 6.4 0.00 0.00 0.00 36 1017.8
20260502221303 18 300 8.0 9.7 0.00 0.00 0.00 36 1017.8
20260502220801 18 352 6.4 14.5 0.00 0.00 0.00 35 1017.8
20260502220256 18 250 4.8 9.7 0.00 0.00 0.00 37 1017.7
20260502215753 19 300 3.2 4.8 0.00 0.00 0.00 36 1017.8
20260502215250 18 289 1.6 4.8 0.00 0.00 0.00 43 1017.9
20260502214748 18 310 3.2 9.7 0.00 0.00 0.00 37 1017.9
20260502214244 19 67 3.2 4.8 0.00 0.00 0.00 38 1017.6
20260502213742 18 24 4.8 11.3 0.00 0.00 0.00 36 1017.7
20260502213239 18 311 3.2 6.4 0.00 0.00 0.00 38 1017.7
20260502212738 18 39 3.2 9.7 0.00 0.00 0.00 37 1017.7
20260502212236 18 317 3.2 4.8 0.00 0.00 0.00 40 1017.7
20260502211731 18 269 3.2 6.4 0.00 0.00 0.00 37 1017.7
20260502211228 18 276 4.8 6.4 0.00 0.00 0.00 39 1017.6
20260502210725 18 270 6.4 9.7 0.00 0.00 0.00 38 1017.7
20260502210222 18 294 4.8 9.7 0.00 0.00 0.00 38 1017.5
20260502205720 18 338 1.6 11.3 0.00 0.00 0.00 39 1017.6
20260502205216 19 266 3.2 6.4 0.00 0.00 0.00 36 1017.9
20260502204713 19 319 3.2 4.8 0.00 0.00 0.00 37 1017.7
20260502204211 18 246 1.6 4.8 0.00 0.00 0.00 39 1017.7
20260502203708 18 35 1.6 4.8 0.00 0.00 0.00 38 1017.8
20260502203206 18 292 6.4 12.9 0.00 0.00 0.00 38 1017.7
20260502202659 18 341 4.8 11.3 0.00 0.00 0.00 35 1017.7
20260502202158 19 61 6.4 6.4 0.00 0.00 0.00 37 1017.6
20260502201655 19 276 3.2 11.3 0.00 0.00 0.00 34 1017.8
20260502201152 19 304 6.4 11.3 0.00 0.00 0.00 37 1017.8
20260502200647 19 254 3.2 14.5 0.00 0.00 0.00 40 1017.7